Powrót do katalogu

THOR ABLESTAR DEB

AktywnyLEO
NORAD 6747·DEBRIS·🇺🇸 United States

Wystrzelony Jun 29, 1961 z Cape Canaveral Space Force Station

Loading…

Następne Przeloty (najbliższe 24 godziny)

TLE

ŚwieżeSource: Space-Track

Epoka: Sep 14, 2026, 11:30 UTC

1 06747U 61015KM  26257.47985016  .00000144  00000-0  15230-3 0  9992
2 06747  66.5988 284.7377 0136322 151.4664 209.3966 13.95262314304031

Śledź THOR ABLESTAR DEB w czasie rzeczywistym z AllMySat

Download on the App Store